Список аэропортов
Фактическая погода:

01 марта, 22:30
Температура: +5°C (+0.2*)
Ветер: юго-западный 8 м/с
Давление: *754 мм
Без существ. явл.
Время (МСК)Темп. СВетерВлажностьДавлениеОблачностьОсадки
21:00+7ЮЗ, 5 м/с60%1006 гПамалооблачно
22:00+6ЮЗ, 6 м/с66%1007 гПамалооблачно
23:00+6ЮЗ, 6 м/с64%1007 гПамалооблачно
02 марта
00:00+6ЮЗ, 5 м/с63%1007 гПас прояснениями
01:00+5ЮЗ, 3 м/с67%1007 гПаоблачно
02:00+6ЮЗ, 4 м/с70%1007 гПаоблачно
03:00+6Ю, 4 м/с73%1006 гПаоблачно
04:00+5Ю, 4 м/с74%1006 гПаоблачно
05:00+5Ю, 5 м/с73%1004 гПаоблачно
06:00+6ЮЗ, 6 м/с77%1004 гПаоблачнодождь
07:00+6ЮЗ, 8 м/с79%1004 гПаоблачнодождь
08:00+6ЮЗ, 7 м/с80%1004 гПас прояснениями
09:00+6ЮЗ, 7 м/с82%1004 гПаоблачно
10:00+7ЮЗ, 8 м/с80%1004 гПаоблачно
11:00+8ЮЗ, 8 м/с80%1004 гПаоблачно
12:00+10З, 11 м/с63%1004 гПаоблачно
13:00+10З, 12 м/с49%1004 гПаоблачно
14:00+10З, 12 м/с47%1005 гПаоблачно
15:00+9З, 12 м/с45%1007 гПаоблачно
16:00+9З, 11 м/с40%1007 гПаоблачно
17:00+9З, 11 м/с39%1008 гПамалооблачно
18:00+8З, 11 м/с42%1009 гПамалооблачно
19:00+8З, 11 м/с42%1010 гПаясно
20:00+7З, 10 м/с45%1011 гПаясно
21:00+7З, 9 м/с49%1012 гПаясно
22:00+6З, 8 м/с51%1013 гПас прояснениями
23:00+6З, 7 м/с54%1014 гПас прояснениями
03 марта
00:00+6З, 7 м/с55%1015 гПаоблачно
01:00+6З, 7 м/с56%1015 гПаоблачно
02:00+6З, 6 м/с56%1015 гПаоблачно
03:00+6З, 6 м/с56%1016 гПаоблачно
04:00+6З, 7 м/с53%1016 гПаоблачно
05:00+6З, 5 м/с53%1017 гПаоблачно
06:00+6З, 5 м/с53%1017 гПаоблачно
07:00+6ЮЗ, 4 м/с54%1017 гПас прояснениями
08:00+5ЮЗ, 3 м/с59%1018 гПас прояснениями
09:00+4ЮЗ, 4 м/с63%1018 гПаоблачно
10:00+4ЮЗ, 4 м/с65%1017 гПаоблачно
11:00+5ЮЗ, 4 м/с61%1017 гПаоблачно
12:00+7ЮЗ, 4 м/с53%1016 гПаоблачно
13:00+8Ю, 4 м/с47%1015 гПаоблачно
14:00+9Ю, 5 м/с44%1014 гПаоблачно
15:00+10Ю, 5 м/с42%1013 гПаоблачно
16:00+11Ю, 6 м/с39%1012 гПаоблачно
17:00+11Ю, 6 м/с38%1011 гПаоблачно
18:00+11Ю, 5 м/с37%1010 гПаоблачно
19:00+11Ю, 5 м/с36%1010 гПаоблачно
20:00+10ЮВ, 3 м/с41%1009 гПаоблачно
21:00+9ЮВ, 2 м/с50%1009 гПаоблачно